POLYITAN-1

Last updated on Sun Dec 14 2025 00:03:49 GMT+0000 (Coordinated Universal Time)

1 40042U 14033AJ 25346.94529242 .00025909 00000+0 10177-2 0 9990 2 40042 98.1082 351.5367 0010483 78.9554 281.2861 15.25638401625123
UTC large
Height (km)
Speed (km/s)
/
Latitude / Longitude
Inclination (degrees)
Orbital Period (minutes)
Azimuth
Elevation
Range (km)
Doppler Factor

Next 0 passes for location: London (51.5072 / 0.1276)

Sorry there are no passes over London.